Regional Weather Roundup
Issued by NWS

Home | Current Version | Previous Version | Text Only | Print | Product List | Glossary Off
Versions: 1 2 3 4 5 6 7 8 9 10 11 12 13 14 15 16 17 18 19 20 21 22 23 24 25 26 27 28 29 30 31 32 33 34 35 36 37 38 39 40 41 42 43 44 45 46 47 48 49 50

889
ASUS43 KLSX 231507
RWRMO

WEATHER SUMMARY FOR MISSOURI
NATIONAL WEATHER SERVICE SPRINGFIELD MO
900 AM CST THU FEB 23 2017

NOTE: "FAIR" INDICATES FEW OR NO CLOUDS BELOW 12,000 FEET WITH NO
       SIGNIFICANT WEATHER AND/OR OBSTRUCTIONS TO VISIBILITY.
       CURRENT SKY AND/OR WEATHER CONDITIONS ARE NOT AVAILABLE FOR
       CHILLICOTHE AND FARMINGTON.

MOZ001>031-035>038-043-044-053-054-231600-
...NORTHERN AND WESTERN MISSOURI...

CITY           SKY/WX    TMP DP  RH WIND       PRES   REMARKS
KANSAS CTY INT CLOUDY    49  39  68 NE13      29.70F
KANSAS C DTWN  PTSUNNY   51  40  65 NE15      29.69S
LEE`S SUMMIT   PTSUNNY   50  41  71 NE13      29.68S
ST JOSEPH      CLOUDY    44  41  89 NE12      29.73F
CHILLICOTHE      N/A     42  38  85 NE13      29.75F
KIRKSVILLE     CLOUDY    41  39  93 N13       29.80S

$$
MOZ066>068-077>081-088>096-101>105-231600-
...SOUTHWEST MISSOURI...

CITY           SKY/WX    TMP DP  RH WIND       PRES   REMARKS
SPRINGFIELD    PTSUNNY   55  54  96 SE18      29.65F FOG
JOPLIN         MOSUNNY   59  54  83 SE14      29.59F
BRANSON        FOG       54  54 100 SE8       29.70F VSB 1/4

$$
MOZ032>034-039>042-045>050-055>058-069>072-231600-
...CENTRAL MISSOURI...

CITY           SKY/WX    TMP DP  RH WIND       PRES   REMARKS
COLUMBIA       CLOUDY    53  51  93 NE8       29.72F
JEFFERSON CITY FOG       50  50 100 E3        29.72F VSB 1/2
ROLLA          FOG       53  53 100 S9        29.71F VSB 1/4
SEDALIA        CLOUDY    55  48  77 E10       29.69F
WHITEMAN AFB   LGT RAIN  53  47  80 E9        29.66F
WARRENSBURG    CLOUDY    52  41  66 NE16      29.67F
OSAGE BEACH    CLOUDY    56  54  93 SE6       29.71F

$$
MOZ051-052-059>065-231600-
...EAST CENTRAL MISSOURI...

CITY           SKY/WX    TMP DP  RH WIND       PRES   REMARKS
ST LOUIS INTL  CLOUDY    60  55  83 CALM      29.74R
SPIRIT OF STL  MOSUNNY   53  53 100 CALM      29.73R FOG
ST CHARLES     CLOUDY    54  54 100 CALM      29.73R FOG

$$
MOZ072>076-082>087-097>100-106>115-231600-
...SOUTH CENTRAL AND SOUTHEAST MISSOURI...

CITY           SKY/WX    TMP DP  RH WIND       PRES   REMARKS
CAPE GIRARDEAU CLOUDY    58  56  93 SW9       29.79R
FARMINGTON     CLOUDY    54  52  93 S9        29.76S
POPLAR BLUFF   FOG       54  54 100 S5        29.78F VSB 1/2
WEST PLAINS    CLOUDY    55  54  96 S7        29.75F FOG

$$



USA.gov is the U.S. government's official web portal to all federal, state and local government web resources and services.